Weather History for Fort Payne, AL

Change the Weather History Date:

Saturday, December 8, 2012

  Actual Average (KRMG) Record (KRMG)
Temperature  
Mean Temperature 56 °F 44 °F  
Max Temperature 62 °F 54 °F 75 °F (1998)
Min Temperature 51 °F 33 °F 18 °F (2006)
Degree Days  
Heating Degree Days 8 21  
Month to date heating degree days 162  
Since 1 July heating degree days 769  
Growing Degree Days 6 (Base 50)    
Moisture  
Dew Point 53 °F    
Average Humidity 82    
Maximum Humidity 94    
Minimum Humidity 72    
Precipitation  
Precipitation 0.00 in 0.17 in 1.90 in (2013)
Month to date precipitation 1.48  
Year to date precipitation 49.02  
Sea Level Pressure  
Sea Level Pressure 29.99 in    
Wind  
Wind Speed 1 mph (SSW)    
Max Wind Speed 6 mph    
Max Gust Speed -    
Visibility 9 miles    
Events Rain    
T = Trace of Precipitation, MM = Missing Value Source: NWS Daily Summary

Daily Weather History Graph

Daily Weather History Graph

Search for Another Location

Airport:

Trip Planner

Search our weather history database for the weather conditions in past years. The results will help you decide how hot, cold, wet, or windy it might be!

Date:

Astronomy

Dec. 08, 2012 Rise Set
Actual Time 6:37 AM CST 4:32 PM CST
Civil Twilight 6:09 AM CST 5:00 PM CST
Nautical Twilight 5:38 AM CST 5:31 PM CST
Astronomical Twilight 5:07 AM CST 6:02 PM CST
Moon 1:12 AM CST (12/8) 12:52 PM CST (12/8)
Length of Visible Light 10h 50m
Length of Day
9h 55m
Waning Crescent, 28% of the Moon is Illuminated
Dec 8
Waning Crescent
Dec 13
New
Dec 19
First Quarter
Dec 28
Full
Jan 4
Last Quarter

Hourly Weather History & Observations

Time (CST) Temp. Dew Point Humidity Pressure Visibility Wind Dir Wind Speed Gust Speed Precip Events Conditions
12:15 AM 55.4 °F 48.2 °F 77% 29.98 in 10.0 mi Calm Calm - N/A   Mostly Cloudy
12:35 AM 53.6 °F 48.2 °F 82% 29.98 in 10.0 mi Calm Calm - N/A   Clear
12:55 AM 53.6 °F 48.2 °F 82% 29.98 in 10.0 mi Calm Calm - N/A   Mostly Cloudy
1:15 AM 53.6 °F 48.2 °F 82% 29.98 in 10.0 mi Calm Calm - N/A   Overcast
1:35 AM 53.6 °F 50.0 °F 88% 29.98 in 10.0 mi Calm Calm - N/A   Overcast
1:55 AM 51.8 °F 46.4 °F 82% 29.98 in 10.0 mi Calm Calm - N/A   Mostly Cloudy
2:15 AM 53.6 °F 48.2 °F 82% 29.98 in 10.0 mi Calm Calm - N/A   Mostly Cloudy
2:55 AM 51.8 °F 48.2 °F 88% 29.97 in 10.0 mi Calm Calm - N/A   Mostly Cloudy
3:15 AM 51.8 °F 46.4 °F 82% 29.97 in 10.0 mi Calm Calm - N/A   Mostly Cloudy
3:35 AM 51.8 °F 48.2 °F 88% 29.98 in 10.0 mi Calm Calm - N/A   Mostly Cloudy
3:55 AM 51.8 °F 46.4 °F 82% 29.98 in 10.0 mi Calm Calm - N/A   Overcast
4:15 AM 51.8 °F 48.2 °F 88% 29.98 in 10.0 mi Calm Calm - N/A   Overcast
4:35 AM 51.8 °F 48.2 °F 88% 29.99 in 10.0 mi Calm Calm - N/A   Overcast
4:55 AM 53.6 °F 50.0 °F 88% 29.99 in 10.0 mi Calm Calm - N/A   Overcast
5:15 AM 51.8 °F 50.0 °F 94% 29.99 in 10.0 mi Calm Calm - N/A   Overcast
5:35 AM 53.6 °F 50.0 °F 88% 30.00 in 10.0 mi Calm Calm - N/A   Overcast
6:15 AM 53.6 °F 50.0 °F 88% 30.00 in 10.0 mi Calm Calm - N/A   Overcast
6:35 AM 53.6 °F 50.0 °F 88% 30.01 in 10.0 mi Calm Calm - N/A   Overcast
6:55 AM 53.6 °F 50.0 °F 88% 30.00 in 10.0 mi Calm Calm - N/A   Overcast
7:15 AM 53.6 °F 50.0 °F 88% 30.01 in 10.0 mi Calm Calm - N/A   Overcast
7:35 AM 55.4 °F 50.0 °F 82% 30.01 in 10.0 mi Calm Calm - N/A   Overcast
7:55 AM 55.4 °F 50.0 °F 82% 30.01 in 10.0 mi Calm Calm - N/A   Overcast
8:15 AM 55.4 °F 51.8 °F 88% 30.01 in 10.0 mi Calm Calm - N/A   Overcast
8:35 AM 55.4 °F 50.0 °F 82% 30.02 in 10.0 mi Calm Calm - N/A   Overcast
8:55 AM 57.2 °F 51.8 °F 82% 30.01 in 10.0 mi Calm Calm - N/A   Overcast
9:15 AM 59.0 °F 51.8 °F 77% 30.02 in 10.0 mi Calm Calm - N/A   Overcast
9:35 AM 59.0 °F 51.8 °F 77% 30.02 in 10.0 mi Calm Calm - N/A   Overcast
9:55 AM 60.8 °F 53.6 °F 77% 30.03 in 10.0 mi South 5.8 mph - N/A   Overcast
10:15 AM 59.0 °F 51.8 °F 77% 30.03 in 10.0 mi South 3.5 mph - N/A   Overcast
10:35 AM 60.8 °F 53.6 °F 77% 30.02 in 10.0 mi Calm Calm - N/A   Overcast
10:55 AM 60.8 °F 53.6 °F 77% 30.01 in 10.0 mi SSW 4.6 mph - N/A   Overcast
11:15 AM 60.8 °F 53.6 °F 77% 30.00 in 10.0 mi SSW 4.6 mph - N/A   Overcast
11:35 AM 60.8 °F 53.6 °F 77% 29.99 in 10.0 mi SSW 4.6 mph - N/A   Overcast
11:55 AM 62.6 °F 53.6 °F 72% 29.99 in 10.0 mi SSW 5.8 mph - N/A   Overcast
12:15 PM 62.6 °F 53.6 °F 72% 29.98 in 10.0 mi SSW 5.8 mph - N/A   Overcast
12:35 PM 62.6 °F 53.6 °F 72% 29.98 in 10.0 mi WSW 5.8 mph - N/A   Overcast
12:55 PM 62.6 °F 53.6 °F 72% 29.98 in 10.0 mi SW 4.6 mph - N/A   Overcast
1:15 PM 62.6 °F 53.6 °F 72% 29.98 in 10.0 mi SSW 5.8 mph - N/A   Overcast
1:35 PM 62.6 °F 53.6 °F 72% 29.97 in 10.0 mi South 3.5 mph - N/A   Overcast
1:55 PM 62.6 °F 53.6 °F 72% 29.97 in 10.0 mi Calm Calm - N/A   Overcast
2:15 PM 62.6 °F 55.4 °F 77% 29.97 in 10.0 mi South 4.6 mph - N/A   Overcast
2:35 PM 62.6 °F 53.6 °F 72% 29.97 in 10.0 mi South 3.5 mph - N/A   Overcast
2:55 PM 62.6 °F 55.4 °F 77% 29.96 in 7.0 mi South 3.5 mph - N/A   Overcast
3:15 PM 62.6 °F 55.4 °F 77% 29.95 in 10.0 mi Calm Calm - N/A   Overcast
3:35 PM 62.6 °F 55.4 °F 77% 29.96 in 10.0 mi Calm Calm - N/A   Overcast
3:55 PM 62.6 °F 55.4 °F 77% 29.96 in 10.0 mi Calm Calm - N/A   Scattered Clouds
4:15 PM 60.8 °F 55.4 °F 82% 29.96 in 10.0 mi SE 3.5 mph - N/A   Scattered Clouds
4:35 PM 60.8 °F 55.4 °F 82% 29.97 in 10.0 mi SSW 3.5 mph - N/A   Mostly Cloudy
4:55 PM 60.8 °F 55.4 °F 82% 29.97 in 10.0 mi Calm Calm - N/A   Overcast
5:15 PM 60.8 °F 55.4 °F 82% 29.98 in 7.0 mi SW 3.5 mph - N/A   Overcast
5:35 PM 60.8 °F 55.4 °F 82% 29.98 in 7.0 mi SW 3.5 mph - N/A   Overcast
5:55 PM 60.8 °F 55.4 °F 82% 29.98 in 7.0 mi Calm Calm - N/A   Overcast
6:15 PM 60.8 °F 55.4 °F 82% 29.99 in 7.0 mi Calm Calm - N/A   Overcast
6:35 PM 60.8 °F 55.4 °F 82% 30.00 in 7.0 mi Calm Calm - N/A   Overcast
6:55 PM 60.8 °F 55.4 °F 82% 30.00 in 7.0 mi Calm Calm - N/A   Overcast
7:15 PM 59.0 °F 55.4 °F 88% 30.01 in 5.0 mi Calm Calm - N/A   Overcast
7:55 PM 60.8 °F 55.4 °F 82% 30.01 in 7.0 mi Calm Calm - N/A   Overcast
8:15 PM 60.8 °F 55.4 °F 82% 30.01 in 7.0 mi Calm Calm - N/A   Overcast
8:35 PM 60.8 °F 57.2 °F 88% 30.01 in 5.0 mi Calm Calm - N/A Rain Light Rain
9:15 PM 60.8 °F 57.2 °F 88% 30.01 in 10.0 mi South 3.5 mph - N/A   Overcast
9:35 PM 62.6 °F 57.2 °F 82% 30.01 in 10.0 mi SSE 4.6 mph - N/A   Overcast
9:55 PM 60.8 °F 57.2 °F 88% 30.01 in 10.0 mi South 5.8 mph - N/A   Overcast
10:15 PM 60.8 °F 55.4 °F 82% 30.02 in 10.0 mi WSW 3.5 mph - N/A   Overcast
10:35 PM 60.8 °F 57.2 °F 88% 30.02 in 10.0 mi SSW 3.5 mph - N/A   Overcast
10:55 PM 60.8 °F 55.4 °F 82% 30.02 in 10.0 mi Calm Calm - N/A   Overcast
11:15 PM 59.0 °F 55.4 °F 88% 30.01 in 10.0 mi Calm Calm - N/A   Scattered Clouds
11:35 PM 59.0 °F 55.4 °F 88% 30.01 in 10.0 mi Calm Calm - N/A   Scattered Clouds
11:55 PM 57.2 °F 53.6 °F 88% 30.01 in 5.0 mi Calm Calm - N/A   Scattered Clouds